AIC878 VOBL-VOCI

Flight info

Callsign AIC878
Flight time N/A
Altitude 34000
Route AKTIM8A AKTIM W118 CIA DCT
Aircraft A21N/M-V/N

Departure

Time 2026-05-08 14:20
Airport Kempegowda International Airport Bengaluru (VOBL)

Arrival

Time N/A
Airport Cochin International Airport (VOCI)
Time Latitude Longitude Altitude Speed Heading
2026-05-08 13:17 13.19683 77.72011 2937 ft 0 kts 256°
2026-05-08 13:55 13.19689 77.72036 2935 ft 3 kts 256°
2026-05-08 13:56 13.19694 77.72055 2929 ft 3 kts 256°
2026-05-08 13:56 13.19698 77.72074 2928 ft 3 kts 256°
2026-05-08 13:56 13.19698 77.72094 2929 ft 3 kts 308°
2026-05-08 13:56 13.19685 77.72103 2928 ft 0 kts
2026-05-08 14:05 13.19687 77.72103 2935 ft 1 kts
2026-05-08 14:06 13.19695 77.72104 2930 ft 2 kts
2026-05-08 14:06 13.19709 77.72105 2931 ft 2 kts
2026-05-08 14:06 13.19727 77.72106 2930 ft 3 kts
2026-05-08 14:06 13.19751 77.72107 2933 ft 4 kts
2026-05-08 14:07 13.19779 77.72108 2934 ft 4 kts
2026-05-08 14:07 13.19810 77.72108 2931 ft 5 kts 360°
2026-05-08 14:07 13.19846 77.72109 2931 ft 5 kts
2026-05-08 14:07 13.19886 77.72109 2929 ft 6 kts
2026-05-08 14:08 13.19929 77.72109 2929 ft 6 kts
2026-05-08 14:08 13.19975 77.72110 2932 ft 7 kts
2026-05-08 14:08 13.20024 77.72110 2932 ft 7 kts
2026-05-08 14:08 13.20075 77.72111 2928 ft 8 kts
2026-05-08 14:09 13.20128 77.72111 2931 ft 8 kts
2026-05-08 14:09 13.20183 77.72112 2929 ft 8 kts
2026-05-08 14:09 13.20238 77.72112 2930 ft 8 kts 360°
2026-05-08 14:09 13.20293 77.72112 2930 ft 8 kts 360°
2026-05-08 14:10 13.20348 77.72112 2930 ft 8 kts 360°
2026-05-08 14:10 13.20402 77.72112 2926 ft 8 kts 360°
2026-05-08 14:10 13.20453 77.72112 2930 ft 7 kts 360°
2026-05-08 14:10 13.20497 77.72098 2930 ft 6 kts 319°
2026-05-08 14:11 13.20513 77.72071 2931 ft 3 kts 288°
2026-05-08 14:11 13.20516 77.72055 2928 ft 1 kts 277°
2026-05-08 14:11 13.20517 77.72033 2932 ft 9 kts 273°
2026-05-08 14:11 13.20518 77.71967 2930 ft 8 kts 270°
2026-05-08 14:12 13.20518 77.71915 2930 ft 6 kts 270°
2026-05-08 14:12 13.20519 77.71877 2932 ft 4 kts 270°
2026-05-08 14:12 13.20519 77.71854 2929 ft 2 kts 270°
2026-05-08 14:12 13.20519 77.71846 2929 ft 0 kts 270°
2026-05-08 14:13 13.20519 77.71841 2931 ft 5 kts 270°
2026-05-08 14:13 13.20520 77.71752 2932 ft 14 kts 271°
2026-05-08 14:13 13.20522 77.71610 2939 ft 28 kts 270°
2026-05-08 14:13 13.20523 77.71362 2943 ft 37 kts 271°
2026-05-08 14:14 13.20525 77.71110 2952 ft 34 kts 270°
2026-05-08 14:14 13.20526 77.70878 2957 ft 31 kts 271°
2026-05-08 14:14 13.20529 77.70669 2950 ft 28 kts 269°
2026-05-08 14:14 13.20530 77.70482 2966 ft 25 kts 270°
2026-05-08 14:15 13.20532 77.70315 2970 ft 22 kts 271°
2026-05-08 14:15 13.20533 77.70167 2974 ft 19 kts 269°
2026-05-08 14:15 13.20534 77.70038 2977 ft 17 kts 271°
2026-05-08 14:15 13.20536 77.69927 2979 ft 15 kts 270°
2026-05-08 14:16 13.20537 77.69790 2982 ft 24 kts 270°
2026-05-08 14:16 13.20538 77.69623 2986 ft 22 kts 270°
2026-05-08 14:16 13.20538 77.69473 2988 ft 20 kts 270°
2026-05-08 14:16 13.20539 77.69340 2991 ft 17 kts 273°
2026-05-08 14:17 13.20542 77.69226 2994 ft 15 kts 270°
2026-05-08 14:17 13.20542 77.69067 2998 ft 30 kts 270°
2026-05-08 14:17 13.20543 77.68840 3003 ft 26 kts 270°
2026-05-08 14:17 13.20544 77.68714 3006 ft 11 kts 270°
2026-05-08 14:18 13.20551 77.68647 3008 ft 6 kts 295°
2026-05-08 14:18 13.20568 77.68632 3010 ft 2 kts 327°
2026-05-08 14:18 13.20574 77.68628 3008 ft 0 kts 328°
2026-05-08 14:18 13.20576 77.68627 3008 ft 3 kts 328°
2026-05-08 14:19 13.20619 77.68616 3009 ft 7 kts 359°
2026-05-08 14:19 13.20664 77.68624 3009 ft 6 kts 18°
2026-05-08 14:19 13.20702 77.68650 3009 ft 7 kts 53°
2026-05-08 14:19 13.20716 77.68702 3007 ft 8 kts 86°
2026-05-08 14:20 13.20718 77.68838 3004 ft 47 kts 90°
2026-05-08 14:20 13.20711 77.69440 2990 ft 122 kts 90°
2026-05-08 14:20 13.20692 77.70537 3088 ft 172 kts 91°
2026-05-08 14:20 13.20606 77.71753 3833 ft 169 kts 95°
2026-05-08 14:21 13.20588 77.72950 4619 ft 167 kts 86°
2026-05-08 14:21 13.20717 77.74120 5378 ft 163 kts 77°
2026-05-08 14:21 13.21054 77.75178 6059 ft 150 kts 63°
2026-05-08 14:21 13.21672 77.75995 6625 ft 146 kts 39°
2026-05-08 14:22 13.22611 77.76361 7084 ft 149 kts 17°
2026-05-08 14:22 13.23646 77.76946 6591 ft 207 kts 50°
2026-05-08 14:22 13.24370 77.78533 5272 ft 289 kts 78°
2026-05-08 14:22 13.24887 77.80753 4267 ft 345 kts 67°
2026-05-08 14:23 13.26116 77.82988 3995 ft 375 kts 63°
2026-05-08 14:23 13.26767 77.85323 6344 ft 294 kts 78°
2026-05-08 14:23 13.27101 77.87114 9299 ft 222 kts 77°
2026-05-08 14:23 13.27342 77.88462 11261 ft 166 kts 75°
2026-05-08 14:24 13.27538 77.89532 12164 ft 147 kts 74°
2026-05-08 14:24 13.27762 77.90664 12090 ft 181 kts 75°